Weather observations for the past three days for
VIGIE/ST LUCIA
Metric (Imperial)
Date Time (ast) Wind (kph) Vis. (km) Weather Sky Cond. Temperature (ºC) Relative Humidity Wind Chill (°C) Heat Index (°C) Pressure Precipitation (cm)
Air Dwpt 6 hour altimeter (cm) sea level (mb) 1 hr 3 hr 6 hr
Max. Min.
10 10:00 E 22 0.00 Partly Cloudy SCT024 29 23 70% 33 0 0.0
10 09:00 E 24 0.00 Partly Cloudy SCT024 28 23 74% 31 0 0.0
10 08:00 E 19 0.00 Partly Cloudy SCT022 27 23 79% 30 0 0.0
10 07:00 E 15 0.00 A Few Clouds FEW022 27 23 79% 30 0 0.0
10 06:00 E 13 0.00 Partly Cloudy SCT022 26 21 74% 27 0 0.0
10 05:00 E 11 0.00 Showers Rain SCT022 27 22 74% 29 0 0.0
10 00:00 E 17 0.00 Mostly Cloudy BKN022 27 23 79% 30 0 0.0
09 23:00 E 15 0.00 Partly Cloudy SCT022 27 23 79% 30 0 0.0
09 22:00 E 13 0.00 Showers Rain BKN022 25 22 83% 26 0 0.0
09 21:00 E 13 0.00 A Few Clouds FEW022 27 22 74% 29 0 0.0
09 20:00 E 17 0.00 Partly Cloudy SCT023 27 22 74% 29 0 0.0
09 19:00 E 13 0.00 Mostly Cloudy BKN023 27 22 74% 29 0 0.0
09 17:00 E 17 0.00 Mostly Cloudy BKN023 29 23 70% 33 0 0.0
09 15:00 E 20 0.00 Mostly Cloudy BKN026 31 21 55% 34 0 0.0
09 14:00 E 24 0.00 Partly Cloudy SCT024 31 21 55% 34 0 0.0
09 13:00 E 20 0.00 Mostly Cloudy BKN024 31 21 55% 34 0 0.0
09 12:00 E 22 0.00 Partly Cloudy SCT024 31 21 55% 34 0 0.0
09 11:00 E 22 0.00 Mostly Cloudy BKN020 30 22 62% 33 0 0.0
09 10:00 E 17 0.00 Mostly Cloudy BKN024 29 22 66% 32 0 0.0
09 09:00 E 17 0.00 Partly Cloudy SCT024 29 23 70% 33 0 0.0
09 08:00 E 13 0.00 Partly Cloudy SCT024 28 23 74% 31 0 0.0
08 20:00 E 11 0.00 A Few Clouds FEW024 27 21 70% 29 0 0.0
08 19:00 E 17 0.00 Partly Cloudy SCT024 27 22 74% 29 0 0.0
08 18:00 E 17 0.00 Partly Cloudy SCT023 28 22 70% 31 0 0.0
08 17:00 E 15 0.00 Mostly Cloudy BKN023 29 22 66% 32 0 0.0
08 16:00 E 15 0.00 Mostly Cloudy BKN022 31 20 52% 33 0 0.0
08 14:00 E 15 0.00 Partly Cloudy SCT020 32 21 52% 35 0 0.0
08 13:00 E 17 0.00 Mostly Cloudy BKN020 32 21 52% 35 0 0.0
08 12:00 E 19 0.00 Partly Cloudy SCT024 31 21 55% 34 0 0.0
08 11:00 E 20 0.00 Mostly Cloudy BKN020 30 21 59% 33 0 0.0
08 10:00 E 17 0.00 Mostly Cloudy BKN020 30 21 59% 33 0 0.0
08 09:00 E 19 0.00 Partly Cloudy SCT024 28 22 70% 31 0 0.0
08 08:00 E 11 0.00 Partly Cloudy SCT024 28 22 70% 31 0 0.0
07 20:00 E 13 0.00 A Few Clouds FEW024 27 23 79% 30 0 0.0
07 19:00 E 11 0.00 A Few Clouds FEW024 27 22 74% 29 0 0.0
07 18:00 E 13 0.00 Partly Cloudy SCT024 28 22 70% 31 0 0.0
07 17:00 NE 15 0.00 A Few Clouds FEW024 30 23 66% 34 0 0.0
07 16:00 NE 17 0.00 Partly Cloudy SCT024 30 22 62% 33 0 0.0
07 15:00 E 15 0.00 A Few Clouds FEW024 31 22 59% 35 0 0.0
07 14:00 NE 17 0.00 A Few Clouds FEW024 30 23 66% 34 0 0.0
07 13:00 NE 13 0.00 A Few Clouds FEW024 32 22 55% 36 0 0.0
07 12:00 E 17 0.00 A Few Clouds FEW024 32 22 55% 36 0 0.0
07 11:00 E 19 0.00 A Few Clouds FEW024 31 23 62% 35 0 0.0
Date Time (ast) Wind (kph) Vis. (km) Weather Sky Cond. Air Dwpt Max. Min. Relative Humidity Wind Chill (°C) Heat Index (°C) altimeter (cm) sea level (mb) 1 hr 3 hr 6 hr
6 hour
Temperature (ºC) Pressure Precipitation (cm)